GW5684 Weather Reports


time (UTC)temp
C
wind
direction
speed
KPH
gust
KPH
rain 1hr
cm
rain 24hr
cm
rain mn
cm
humidity
%
barometer
mb
20260505035506 16 171 0.0 3.2 0.00 0.00 0.00 59 1011.0
20260505035007 16 171 0.0 3.2 0.00 0.00 0.00 58 1010.9
20260505034509 16 192 0.0 3.2 0.00 0.00 0.00 57 1010.8
20260505034009 16 192 0.0 4.8 0.00 0.00 0.00 57 1010.8
20260505033504 16 232 0.0 4.8 0.00 0.00 0.00 58 1010.8
20260505033010 16 184 0.0 3.2 0.00 0.00 0.00 60 1010.8
20260505032507 16 184 0.0 3.2 0.00 0.00 0.00 59 1010.8
20260505032007 16 180 0.0 3.2 0.00 0.00 0.00 59 1010.7
20260505031535 16 185 0.0 3.2 0.00 0.00 0.00 60 1010.8
20260505031007 16 185 0.0 0.0 0.00 0.00 0.00 60 1011.0
20260505030509 16 185 0.0 0.0 0.00 0.00 0.00 61 1011.0
20260505030016 16 185 0.0 3.2 0.00 0.00 0.00 61 1010.9
20260505025509 16 185 0.0 3.2 0.00 0.00 0.00 60 1010.8
20260505025008 17 185 0.0 3.2 0.00 0.00 0.00 59 1010.9
20260505024533 17 185 0.0 3.2 0.00 0.00 0.00 57 1010.9
20260505024011 17 185 0.0 3.2 0.00 0.00 0.00 56 1010.8
20260505023507 18 185 0.0 3.2 0.00 0.00 0.00 54 1010.9
20260505023010 18 185 0.0 3.2 0.00 0.00 0.00 52 1010.8
20260505022504 18 185 0.0 3.2 0.00 0.00 0.00 52 1010.9
20260505022004 18 185 0.0 3.2 0.00 0.00 0.00 52 1010.8
20260505021516 18 198 0.0 3.2 0.00 0.00 0.00 52 1010.7
20260505021011 18 207 0.0 3.2 0.00 0.00 0.00 52 1010.8
20260505020507 18 248 0.0 3.2 0.00 0.00 0.00 51 1010.9
20260505020027 18 248 0.0 3.2 0.00 0.00 0.00 51 1010.7
20260505015508 19 248 0.0 3.2 0.00 0.00 0.00 50 1010.7
20260505015007 19 214 0.0 3.2 0.00 0.00 0.00 50 1010.6
20260505014528 19 250 0.0 3.2 0.00 0.00 0.00 50 1010.6
20260505014015 19 250 0.0 3.2 0.00 0.00 0.00 50 1010.4
20260505013509 19 250 0.0 3.2 0.00 0.00 0.00 50 1010.4
20260505013024 19 88 0.0 3.2 0.00 0.00 0.00 49 1010.2
20260505012508 19 200 0.0 4.8 0.00 0.00 0.00 49 1010.1
20260505012012 19 218 1.6 4.8 0.00 0.00 0.00 49 1010.1
20260505011510 19 211 0.0 4.8 0.00 0.00 0.00 49 1010.1
20260505011005 19 234 0.0 4.8 0.00 0.00 0.00 49 1010.1
20260505010508 19 233 0.0 3.2 0.00 0.00 0.00 49 1010.2
20260505010012 20 196 0.0 4.8 0.00 0.00 0.00 49 1010.1
20260505005507 20 165 0.0 4.8 0.00 0.00 0.00 48 1010.0
20260505005007 20 167 0.0 4.8 0.00 0.00 0.00 48 1009.9
20260505004537 20 167 0.0 4.8 0.00 0.00 0.00 47 1009.9
20260505004008 20 167 0.0 3.2 0.00 0.00 0.00 47 1010.0
20260505003509 20 157 0.0 3.2 0.00 0.00 0.00 47 1010.0
20260505003023 20 205 0.0 1.6 0.00 0.00 0.00 46 1010.1
20260505002514 20 205 0.0 3.2 0.00 0.00 0.00 45 1010.1
20260505002017 20 205 0.0 3.2 0.00 0.00 0.00 45 1009.9
20260505001527 21 205 0.0 3.2 0.00 0.00 0.00 44 1009.8
20260505001014 21 205 0.0 3.2 0.00 0.00 0.00 43 1010.0
20260505000508 21 205 0.0 3.2 0.00 0.00 0.00 43 1010.0
20260505000022 21 216 0.0 3.2 0.00 0.00 0.00 42 1010.0
20260504235508 22 216 0.0 3.2 0.00 0.00 0.00 41 1009.9
20260504235006 22 216 0.0 3.2 0.00 0.00 0.00 40 1009.9
20260504234520 22 194 0.0 3.2 0.00 0.00 0.00 38 1009.9
20260504234006 22 231 0.0 4.8 0.00 0.00 0.00 40 1009.9
20260504233508 22 231 0.0 4.8 0.00 0.00 0.00 39 1009.9
20260504233022 22 223 1.6 3.2 0.00 0.00 0.00 38 1009.9
20260504232510 23 219 0.0 4.8 0.00 0.00 0.00 39 1009.7
20260504232013 23 229 1.6 4.8 0.00 0.00 0.00 37 1009.7
20260504231523 23 216 1.6 8.0 0.00 0.00 0.00 38 1009.7
20260504231007 23 211 1.6 8.0 0.00 0.00 0.00 36 1009.8
20260504230508 23 244 0.0 9.7 0.00 0.00 0.00 36 1009.7
20260504230028 23 240 3.2 12.9 0.00 0.00 0.00 35 1009.7
20260504225507 23 238 3.2 12.9 0.00 0.00 0.00 35 1009.7
20260504225010 23 226 1.6 11.3 0.00 0.00 0.00 35 1009.7
20260504224516 23 185 3.2 11.3 0.00 0.00 0.00 35 1009.6
20260504224011 23 175 1.6 8.0 0.00 0.00 0.00 36 1009.6
20260504223503 23 142 3.2 9.7 0.00 0.00 0.00 34 1009.7
20260504223006 23 230 3.2 9.7 0.00 0.00 0.00 34 1009.7
20260504222504 23 234 3.2 9.7 0.00 0.00 0.00 35 1009.7
20260504222003 24 209 3.2 14.5 0.00 0.00 0.00 34 1009.6
20260504221508 23 225 3.2 14.5 0.00 0.00 0.00 35 1009.5
20260504221005 23 213 3.2 12.9 0.00 0.00 0.00 34 1009.6
20260504220507 24 236 1.6 14.5 0.00 0.00 0.00 34 1009.6
20260504220013 24 229 4.8 14.5 0.00 0.00 0.00 33 1009.6
20260504215506 24 240 3.2 14.5 0.00 0.00 0.00 33 1009.6
20260504215008 24 182 1.6 12.9 0.00 0.00 0.00 35 1009.6
20260504214513 24 221 3.2 12.9 0.00 0.00 0.00 33 1009.6
20260504214009 24 194 1.6 11.3 0.00 0.00 0.00 35 1009.7
20260504213506 24 241 3.2 9.7 0.00 0.00 0.00 32 1009.8
20260504213020 24 221 4.8 11.3 0.00 0.00 0.00 32 1009.8
20260504212507 24 232 6.4 20.9 0.00 0.00 0.00 32 1009.8
20260504212005 24 122 4.8 20.9 0.00 0.00 0.00 33 1009.8
20260504211504 25 252 4.8 14.5 0.00 0.00 0.00 32 1009.7
20260504211001 25 9 1.6 11.3 0.00 0.00 0.00 31 1009.5
20260504210503 25 200 3.2 12.9 0.00 0.00 0.00 31 1009.6
20260504210006 25 232 3.2 12.9 0.00 0.00 0.00 31 1009.7
20260504205506 25 163 4.8 12.9 0.00 0.00 0.00 30 1009.7
20260504205006 25 228 4.8 16.1 0.00 0.00 0.00 30 1009.7
20260504204511 25 182 3.2 17.7 0.00 0.00 0.00 31 1009.7
20260504204006 24 163 3.2 17.7 0.00 0.00 0.00 30 1009.7
20260504203514 25 259 3.2 12.9 0.00 0.00 0.00 30 1009.8
20260504203017 25 258 3.2 12.9 0.00 0.00 0.00 30 1009.9
20260504202513 25 163 3.2 12.9 0.00 0.00 0.00 30 1009.8
20260504202007 25 202 3.2 12.9 0.00 0.00 0.00 31 1009.9
20260504201521 24 261 3.2 11.3 0.00 0.00 0.00 30 1009.9
20260504201008 24 260 3.2 14.5 0.00 0.00 0.00 30 1010.0
20260504200505 24 237 8.0 14.5 0.00 0.00 0.00 30 1010.0
20260504200007 24 275 6.4 14.5 0.00 0.00 0.00 30 1010.1
20260504195505 24 223 6.4 19.3 0.00 0.00 0.00 30 1010.1
20260504195003 24 232 3.2 19.3 0.00 0.00 0.00 31 1010.2
20260504194510 25 242 3.2 11.3 0.00 0.00 0.00 31 1010.2
20260504194012 25 233 3.2 12.9 0.00 0.00 0.00 30 1010.2
20260504193509 25 225 1.6 12.9 0.00 0.00 0.00 32 1010.3
20260504193014 24 234 3.2 8.0 0.00 0.00 0.00 31 1010.4
20260504192509 24 198 1.6 8.0 0.00 0.00 0.00 31 1010.4
20260504192010 24 237 0.0 8.0 0.00 0.00 0.00 32 1010.6
20260504191520 23 262 3.2 8.0 0.00 0.00 0.00 31 1010.7
20260504191012 23 207 4.8 14.5 0.00 0.00 0.00 31 1010.8
20260504190511 24 292 3.2 11.3 0.00 0.00 0.00 32 1010.8
20260504190024 24 250 1.6 12.9 0.00 0.00 0.00 32 1010.9
20260504185508 23 180 3.2 12.9 0.00 0.00 0.00 32 1011.0
20260504185004 23 142 1.6 12.9 0.00 0.00 0.00 35 1011.1
20260504184510 23 193 1.6 11.3 0.00 0.00 0.00 35 1011.2
20260504184006 23 240 4.8 11.3 0.00 0.00 0.00 31 1011.4
20260504183510 23 268 3.2 11.3 0.00 0.00 0.00 32 1011.4
20260504183012 23 263 4.8 9.7 0.00 0.00 0.00 34 1011.5
20260504182505 22 237 3.2 12.9 0.00 0.00 0.00 38 1011.5
20260504182011 23 200 4.8 17.7 0.00 0.00 0.00 33 1011.6
20260504181522 23 220 1.6 17.7 0.00 0.00 0.00 37 1011.7
20260504181007 23 208 1.6 6.4 0.00 0.00 0.00 32 1011.7
20260504180513 23 9 1.6 9.7 0.00 0.00 0.00 33 1011.8
20260504180021 22 242 3.2 9.7 0.00 0.00 0.00 34 1011.9
20260504175516 22 273 3.2 8.0 0.00 0.00 0.00 34 1012.0
20260504175008 22 244 1.6 6.4 0.00 0.00 0.00 34 1012.2
20260504174525 22 237 1.6 8.0 0.00 0.00 0.00 35 1012.2
20260504174005 22 238 3.2 9.7 0.00 0.00 0.00 34 1012.2
20260504173506 22 214 1.6 9.7 0.00 0.00 0.00 35 1012.1
20260504173010 22 165 1.6 9.7 0.00 0.00 0.00 39 1012.3
20260504172504 22 232 1.6 9.7 0.00 0.00 0.00 35 1012.3
20260504172006 22 273 0.0 9.7 0.00 0.00 0.00 37 1012.4
20260504171516 22 258 3.2 9.7 0.00 0.00 0.00 34 1012.6
20260504171008 22 195 3.2 9.7 0.00 0.00 0.00 35 1012.6
20260504170508 22 235 3.2 11.3 0.00 0.00 0.00 36 1012.7
20260504151007 18 240 1.6 8.0 0.00 0.00 0.00 39 1013.8
20260504150511 18 268 1.6 8.0 0.00 0.00 0.00 43 1013.8
20260504141008 16 215 3.2 9.7 0.00 0.00 0.00 47 1014.2
20260504140508 16 213 1.6 3.2 0.00 0.00 0.00 48 1014.2
20260504130504 13 225 1.6 6.4 0.00 0.00 0.00 52 1014.7
20260504110506 8 176 0.0 3.2 0.00 0.00 0.00 75 1015.3
20260504100503 8 176 0.0 3.2 0.00 0.00 0.00 73 1014.9
20260504082006 8 98 0.0 0.0 0.00 0.00 0.00 72 1015.4
20260504081522 8 98 0.0 0.0 0.00 0.00 0.00 71 1015.4
20260504081011 8 98 0.0 0.0 0.00 0.00 0.00 70 1015.4
20260504080511 8 98 0.0 0.0 0.00 0.00 0.00 70 1015.4
20260504050505 7 98 0.0 0.0 0.00 0.00 0.00 72 1015.7
20260504050020 8 98 0.0 0.0 0.00 0.00 0.00 72 1015.6
20260504045505 8 98 0.0 0.0 0.00 0.00 0.00 71 1015.6
20260504045005 8 98 0.0 0.0 0.00 0.00 0.00 71 1015.6
20260504044506 7 98 0.0 0.0 0.00 0.00 0.00 72 1015.5
20260504044003 7 98 0.0 0.0 0.00 0.00 0.00 73 1015.6
20260504043503 7 98 0.0 0.0 0.00 0.00 0.00 74 1015.5
20260504043004 6 98 0.0 0.0 0.00 0.00 0.00 74 1015.5
20260504042504 6 98 0.0 0.0 0.00 0.00 0.00 75 1015.5
20260504042003 6 98 0.0 0.0 0.00 0.00 0.00 75 1015.4
20260504041510 6 98 0.0 0.0 0.00 0.00 0.00 75 1015.5
20260504041003 6 98 0.0 0.0 0.00 0.00 0.00 74 1015.4
20260504040504 6 98 0.0 0.0 0.00 0.00 0.00 73 1015.4
20260504040010 6 98 0.0 0.0 0.00 0.00 0.00 73 1015.5